| DS18B20 | SHTC3 | ||||||
|---|---|---|---|---|---|---|---|
| ID | Date d/m/Y & Time | data1 สูง | data2 ต่ำ | data3 นอก | temp pcb | hum pcb | Time |
| 9835 | 08/04/2026 04:07:39 | 29.4  | 29.6  | 27.6  | 29.5  | 70.4  | 04:07 |
| 9834 | 08/04/2026 04:02:55 | 29.5  | 29.6  | 27.6  | 29.4  | 70.5  | 04:02 |
| 9833 | 08/04/2026 03:58:13 | 29.5  | 29.6  | 27.7  | 29.5  | 70.5  | 03:58 |
| 9832 | 08/04/2026 03:53:31 | 29.5  | 29.6  | 27.7  | 29.4  | 70.4  | 03:53 |
| 9831 | 08/04/2026 03:48:49 | 29.5  | 29.6  | 27.7  | 29.6  | 70.5  | 03:48 |
| 9830 | 08/04/2026 03:44:08 | 29.5  | 29.6  | 27.8  | 29.3  | 70.4  | 03:44 |
| 9829 | 08/04/2026 03:39:26 | 29.5  | 29.6  | 27.6  | 29.4  | 70.4  | 03:39 |
| 9828 | 08/04/2026 03:34:44 | 29.6  | 29.6  | 27.6  | 29.5  | 70.4  | 03:34 |
| 9827 | 08/04/2026 03:30:01 | 29.6  | 29.6  | 27.5  | 29.6  | 70.5  | 03:30 |
| 9826 | 08/04/2026 03:25:19 | 29.6  | 29.7  | 27.6  | 29.4  | 70.4  | 03:25 |
| 9825 | 08/04/2026 03:20:37 | 29.6  | 29.7  | 27.6  | 29.5  | 70.5  | 03:20 |
| 9824 | 08/04/2026 03:15:56 | 29.6  | 29.7  | 27.9  | 29.6  | 70.5  | 03:15 |
| 9823 | 08/04/2026 03:11:14 | 29.6  | 29.8  | 28.0  | 29.6  | 70.5  | 03:11 |
| 9822 | 08/04/2026 03:06:32 | 29.6  | 29.8  | 27.9  | 29.7  | 70.4  | 03:06 |
| 9821 | 08/04/2026 03:01:50 | 29.7  | 29.8  | 27.9  | 29.7  | 70.5  | 03:01 |
| 9820 | 08/04/2026 02:57:09 | 29.7  | 29.8  | 27.9  | 29.5  | 70.5  | 02:57 |
| 9819 | 08/04/2026 02:52:27 | 29.7  | 29.8  | 27.9  | 29.7  | 70.4  | 02:52 |
| 9818 | 08/04/2026 02:47:44 | 29.7  | 29.8  | 28.0  | 29.6  | 70.6  | 02:47 |
| 9817 | 08/04/2026 02:43:03 | 29.8  | 29.8  | 28.3  | 29.7  | 70.4  | 02:43 |
| 9816 | 08/04/2026 02:38:21 | 29.8  | 29.9  | 28.4  | 29.7  | 70.5  | 02:38 |
| 9815 | 08/04/2026 02:33:39 | 29.8  | 29.9  | 28.4  | 29.7  | 70.4  | 02:33 |
| 9814 | 08/04/2026 02:28:57 | 29.8  | 29.9  | 28.2  | 29.6  | 70.4  | 02:28 |
| 9813 | 08/04/2026 02:24:16 | 29.8  | 29.9  | 28.3  | 29.7  | 70.4  | 02:24 |
| 9812 | 08/04/2026 02:19:33 | 29.8  | 29.9  | 28.4  | 29.8  | 70.3  | 02:19 |